Location: Archemont
(49.1579°N, 1.7598°E)
Time: 16:36:31
(UTC+00:00)

Transit 2A - All Passes

Search period start: 13 April 2024 00:00
Search period end: 23 April 2024 00:00
Orbit: 597 x 955 km, 66.7° (Epoch: 12 April)

Date Brightness Start Highest point End Pass type
(mag) Time Alt. Az. Time Alt. Az. Time Alt. Az.
13 Apr - 07:13:24 10° SSE 07:16:53 23° ESE 07:20:32 10° ENE daylight
13 Apr - 08:55:17 10° SW 08:59:36 51° NW 09:04:16 10° NNE daylight
13 Apr - 10:41:10 10° WNW 10:43:55 15° NNW 10:46:47 10° NNE daylight
13 Apr - 12:28:19 10° N 12:29:16 10° N 12:30:14 10° NNE daylight
13 Apr - 14:10:49 10° NNW 14:14:30 19° NNE 14:18:25 10° ENE daylight
13 Apr - 15:53:17 10° NNW 15:58:35 63° NE 16:04:23 10° SE daylight
13 Apr - 17:36:52 10° NW 17:41:26 27° WSW 17:46:19 10° SSW daylight
14 Apr - 06:39:23 10° SE 06:42:01 16° ESE 06:44:45 10° ENE daylight
14 Apr - 08:20:02 10° SW 08:24:25 73° NW 08:29:11 10° NNE daylight
14 Apr - 10:05:14 10° WNW 10:08:26 18° NNW 10:11:50 10° NNE daylight
14 Apr - 11:52:46 10° NNW 11:53:40 10° N 11:54:35 10° N daylight
14 Apr - 13:35:51 10° NNW 13:39:01 16° NNE 13:42:22 10° ENE daylight
14 Apr - 15:18:15 10° NNW 15:23:22 47° NE 15:28:58 10° ESE daylight
14 Apr - 17:01:27 10° NW 17:06:28 38° WSW 17:11:52 10° S daylight
15 Apr - 06:07:00 10° ESE 06:07:14 10° ESE 06:07:27 10° E daylight
15 Apr - 07:44:55 10° SSW 07:49:18 78° SE 07:54:03 10° NE daylight
15 Apr - 09:29:24 10° W 09:33:00 23° NNW 09:36:51 10° NNE daylight
15 Apr - 11:16:48 10° NNW 11:18:03 11° N 11:19:21 10° N daylight
15 Apr - 13:00:52 10° NNW 13:03:30 14° NNE 13:06:15 10° NE daylight
15 Apr - 14:43:13 10° NNW 14:48:06 37° NE 14:53:26 10° ESE daylight
15 Apr - 16:26:10 10° NW 16:31:26 53° WSW 16:37:11 10° SSE daylight
16 Apr - 07:10:01 10° SSW 07:14:15 52° ESE 07:18:50 10° NE daylight
16 Apr - 08:53:42 10° W 08:57:37 29° NW 09:01:51 10° NNE daylight
16 Apr - 10:40:40 10° NW 10:42:28 12° NNW 10:44:19 10° N daylight
16 Apr - 12:25:52 10° N 12:27:57 12° NNE 12:30:06 10° NE daylight
16 Apr - 14:08:13 10° NNW 14:12:47 29° NE 14:17:43 10° E daylight
16 Apr - 15:50:59 10° NW 15:56:21 73° WSW 16:02:17 10° SSE daylight
16 Apr - 17:36:00 10° WNW 17:38:46 14° WSW 17:41:37 10° SW daylight
17 Apr - 06:35:18 10° S 06:39:16 34° ESE 06:43:31 10° NE daylight
17 Apr - 08:18:08 10° WSW 08:22:19 38° NW 08:26:50 10° NNE daylight
17 Apr - 10:04:34 10° NW 10:06:54 13° NNW 10:09:19 10° NNE daylight
17 Apr - 11:50:48 10° N 11:52:21 11° N 11:53:57 10° NNE daylight
17 Apr - 13:33:14 10° NNW 13:37:25 23° NE 13:41:54 10° E daylight
17 Apr - 15:15:50 10° NW 15:21:15 84° NE 15:27:12 10° SE daylight
17 Apr - 16:59:56 10° WNW 17:03:53 20° WSW 17:08:03 10° SSW daylight
18 Apr - 06:00:52 10° SSE 06:04:22 23° ESE 06:08:02 10° ENE daylight
18 Apr - 07:42:43 10° SW 07:47:04 52° NW 07:51:47 10° NNE daylight
18 Apr - 09:28:33 10° WNW 09:31:22 16° NNW 09:34:20 10° NNE daylight
18 Apr - 11:15:34 10° N 11:16:45 11° N 11:17:57 10° NNE daylight
18 Apr - 12:58:15 10° NNW 13:01:59 19° NNE 13:05:58 10° ENE daylight
18 Apr - 14:40:45 10° NNW 14:46:05 63° NE 14:51:56 10° SE daylight
18 Apr - 16:24:19 10° NW 16:28:58 28° WSW 16:33:55 10° SSW daylight
19 Apr - 05:26:52 10° SE 05:29:30 16° ESE 05:32:14 10° ENE daylight
19 Apr - 07:07:27 10° SW 07:11:53 74° NW 07:16:42 10° NNE daylight
19 Apr - 08:52:37 10° WNW 08:55:53 19° NNW 08:59:22 10° NNE daylight
19 Apr - 10:39:58 10° NNW 10:41:07 11° N 10:42:17 10° NNE daylight
19 Apr - 12:23:15 10° NNW 12:26:30 16° NNE 12:29:55 10° ENE daylight
19 Apr - 14:05:41 10° NNW 14:10:52 47° NE 14:16:31 10° ESE daylight
19 Apr - 15:48:54 10° NW 15:53:59 39° WSW 15:59:27 10° S daylight
20 Apr - 06:32:21 10° SSW 06:36:45 77° ESE 06:41:33 10° NE daylight
20 Apr - 08:16:47 10° W 08:20:27 23° NNW 08:24:23 10° NNE daylight
20 Apr - 10:04:03 10° NNW 10:05:31 11° N 10:07:00 10° N daylight
20 Apr - 11:48:16 10° NNW 11:50:58 14° NNE 11:53:48 10° NE daylight
20 Apr - 13:30:40 10° NNW 13:35:36 37° NE 13:40:58 10° ESE daylight
20 Apr - 15:13:37 10° NW 15:18:57 54° WSW 15:24:46 10° SSE daylight
21 Apr - 05:57:26 10° SSW 06:01:43 51° ESE 06:06:20 10° NE daylight
21 Apr - 07:41:05 10° W 07:45:04 29° NW 07:49:22 10° NNE daylight
21 Apr - 09:27:58 10° NW 09:29:55 12° NNW 09:31:55 10° N daylight
21 Apr - 11:13:13 10° N 11:15:25 12° NNE 11:17:40 10° NE daylight
21 Apr - 12:55:39 10° NNW 13:00:16 29° NE 13:05:16 10° E daylight
21 Apr - 14:38:25 10° NW 14:43:52 74° WSW 14:49:50 10° SSE daylight
21 Apr - 16:23:22 10° WNW 16:26:17 14° WSW 16:29:17 10° SW daylight
22 Apr - 05:22:44 10° S 05:26:44 34° ESE 05:31:00 10° NE daylight
22 Apr - 07:05:32 10° WSW 07:09:45 38° NW 07:14:21 10° NNE daylight
22 Apr - 08:51:54 10° NW 08:54:20 14° NNW 08:56:54 10° NNE daylight
22 Apr - 10:38:07 10° N 10:39:49 11° N 10:41:33 10° NNE daylight
22 Apr - 12:20:39 10° NNW 12:24:53 24° NNE 12:29:25 10° E daylight
22 Apr - 14:03:16 10° NW 14:08:45 83° NE 14:14:44 10° SE daylight
22 Apr - 15:47:21 10° WNW 15:51:24 20° WSW 15:55:39 10° SSW daylight
